• en Belgique
  • Liste des pays
  • À 7 jours
  • Température de l'eau
  • Carte satellitaire
  • Carte météo
  • Widgets météo
  • user-avatar
    Se connecter

    Météo par heure à Pravda

    Ce jour, 27 Mai, Dimanche

    Heure Température Précipitation Vent Pression Humidité
    00:00 +12°C° 0 mm 2 m/s 758 mmHg 73%
    01:00 +10°C° 0 mm 3 m/s 758 mmHg 74%
    02:00 +10°C° 0 mm 3 m/s 758 mmHg 76%
    03:00 +11°C° 0 mm 3 m/s 757 mmHg 75%
    04:00 +11°C° 0 mm 3 m/s 757 mmHg 75%
    05:00 +12°C° 0 mm 4 m/s 757 mmHg 74%
    06:00 +14°C° 0 mm 4 m/s 756 mmHg 70%
    07:00 +17°C° 0 mm 4 m/s 756 mmHg 66%
    08:00 +19°C° 0 mm 5 m/s 756 mmHg 61%
    09:00 +20°C° 0 mm 5 m/s 755 mmHg 58%
    10:00 +21°C° 0 mm 5 m/s 755 mmHg 54%
    11:00 +23°C° 0 mm 5 m/s 754 mmHg 50%
    12:00 +23°C° 0 mm 5 m/s 754 mmHg 51%
    13:00 +23°C° 0 mm 5 m/s 753 mmHg 53%
    14:00 +23°C° 0 mm 4 m/s 753 mmHg 54%
    15:00 +22°C° 0,4 mm 4 m/s 753 mmHg 60%
    16:00 +21°C° 0,4 mm 4 m/s 753 mmHg 66%
    17:00 +21°C° 0,4 mm 4 m/s 752 mmHg 71%
    18:00 +19°C° 0,1 mm 3 m/s 753 mmHg 73%
    19:00 +17°C° 0,1 mm 3 m/s 753 mmHg 74%
    20:00 +14°C° 0,1 mm 3 m/s 754 mmHg 76%
    21:00 +13°C° 0 mm 3 m/s 754 mmHg 71%
    22:00 +11°C° 0 mm 3 m/s 755 mmHg 66%
    23:00 +10°C° 0 mm 3 m/s 756 mmHg 61%

    Demain, 28 Mai, Lundi

    Heure Température Précipitation Vent Pression Humidité
    00:00 +9°C° 0 mm 3 m/s 756 mmHg 60%
    01:00 +8°C° 0 mm 3 m/s 757 mmHg 60%
    02:00 +7°C° 0 mm 2 m/s 758 mmHg 59%
    03:00 +7°C° 0 mm 2 m/s 758 mmHg 59%
    04:00 +7°C° 0 mm 2 m/s 759 mmHg 58%
    05:00 +7°C° 0 mm 2 m/s 759 mmHg 58%
    06:00 +9°C° 0 mm 2 m/s 760 mmHg 53%
    07:00 +10°C° 0 mm 3 m/s 760 mmHg 49%
    08:00 +12°C° 0 mm 3 m/s 760 mmHg 44%
    09:00 +13°C° 0 mm 3 m/s 761 mmHg 42%
    10:00 +14°C° 0 mm 3 m/s 761 mmHg 39%
    11:00 +16°C° 0 mm 3 m/s 761 mmHg 37%
    12:00 +17°C° 0 mm 3 m/s 760 mmHg 37%
    13:00 +17°C° 0 mm 3 m/s 760 mmHg 36%
    14:00 +18°C° 0 mm 3 m/s 760 mmHg 36%
    15:00 +18°C° 0 mm 3 m/s 760 mmHg 38%
    16:00 +18°C° 0 mm 2 m/s 760 mmHg 40%
    17:00 +18°C° 0 mm 2 m/s 760 mmHg 41%
    18:00 +16°C° 0 mm 1 m/s 759 mmHg 48%
    19:00 +14°C° 0 mm 1 m/s 759 mmHg 54%
    20:00 +11°C° 0 mm 0 m/s 759 mmHg 60%
    21:00 +11°C° 0 mm 1 m/s 760 mmHg 61%
    22:00 +10°C° 0 mm 1 m/s 760 mmHg 62%
    23:00 +9°C° 0 mm 2 m/s 760 mmHg 62%

    Après-demain, 29 Mai, Mardi

    Heure Température Précipitation Vent Pression Humidité
    00:00 +8°C° 0 mm 2 m/s 760 mmHg 64%
    01:00 +8°C° 0 mm 2 m/s 760 mmHg 65%
    02:00 +8°C° 0 mm 2 m/s 760 mmHg 66%
    03:00 +8°C° 0 mm 2 m/s 760 mmHg 66%
    04:00 +9°C° 0 mm 2 m/s 759 mmHg 65%
    05:00 +10°C° 0 mm 3 m/s 759 mmHg 65%
    06:00 +12°C° 0 mm 3 m/s 759 mmHg 59%
    07:00 +14°C° 0 mm 3 m/s 759 mmHg 54%
    08:00 +17°C° 0 mm 3 m/s 758 mmHg 48%
    09:00 +18°C° 0 mm 3 m/s 758 mmHg 45%
    10:00 +20°C° 0 mm 4 m/s 757 mmHg 42%
    11:00 +21°C° 0 mm 4 m/s 757 mmHg 39%
    12:00 +22°C° 0 mm 4 m/s 756 mmHg 39%
    13:00 +22°C° 0 mm 4 m/s 755 mmHg 38%
    14:00 +23°C° 0 mm 4 m/s 755 mmHg 38%
    15:00 +23°C° 0 mm 4 m/s 754 mmHg 41%
    16:00 +22°C° 0 mm 4 m/s 753 mmHg 44%
    17:00 +22°C° 0 mm 3 m/s 752 mmHg 47%
    18:00 +20°C° 0 mm 3 m/s 752 mmHg 54%
    19:00 +18°C° 0 mm 3 m/s 751 mmHg 62%
    20:00 +16°C° 0 mm 3 m/s 751 mmHg 69%
    21:00 +16°C° 0 mm 3 m/s 750 mmHg 71%
    22:00 +14°C° 0 mm 3 m/s 750 mmHg 73%
    23:00 +13°C° 0 mm 3 m/s 749 mmHg 76%

    30 Mai, Mercredi

    Heure Température Précipitation Vent Pression Humidité
    00:00 +13°C° 0 mm 3 m/s 749 mmHg 78%
    01:00 +13°C° 0 mm 3 m/s 749 mmHg 81%
    02:00 +13°C° 0 mm 3 m/s 748 mmHg 84%
    03:00 +13°C° 0 mm 4 m/s 748 mmHg 81%
    04:00 +14°C° 0 mm 4 m/s 747 mmHg 79%
    05:00 +15°C° 0 mm 4 m/s 747 mmHg 76%
    06:00 +17°C° 0 mm 5 m/s 746 mmHg 71%
    07:00 +20°C° 0 mm 6 m/s 745 mmHg 66%
    08:00 +22°C° 0 mm 7 m/s 744 mmHg 60%
    09:00 +23°C° 0 mm 7 m/s 744 mmHg 55%
    10:00 +24°C° 0 mm 7 m/s 743 mmHg 50%
    11:00 +26°C° 0 mm 8 m/s 743 mmHg 45%
    12:00 +24°C° 0,2 mm 8 m/s 743 mmHg 48%
    13:00 +23°C° 0,2 mm 7 m/s 743 mmHg 51%
    14:00 +22°C° 0,2 mm 7 m/s 742 mmHg 55%
    15:00 +22°C° 0,1 mm 6 m/s 743 mmHg 51%
    16:00 +21°C° 0,1 mm 6 m/s 743 mmHg 48%
    17:00 +21°C° 0,1 mm 5 m/s 743 mmHg 45%
    18:00 +18°C° 0 mm 4 m/s 743 mmHg 51%
    19:00 +16°C° 0 mm 3 m/s 743 mmHg 56%
    20:00 +14°C° 0 mm 2 m/s 744 mmHg 62%
    21:00 +13°C° 0 mm 2 m/s 744 mmHg 62%
    22:00 +13°C° 0 mm 2 m/s 744 mmHg 63%
    23:00 +12°C° 0 mm 2 m/s 744 mmHg 63%

    31 Mai, Jeudi

    Heure Température Précipitation Vent Pression Humidité
    00:00 +10°C° 0 mm 2 m/s 744 mmHg 64%
    01:00 +10°C° 0 mm 3 m/s 745 mmHg 64%
    02:00 +9°C° 0 mm 3 m/s 745 mmHg 64%
    03:00 +9°C° 0 mm 3 m/s 746 mmHg 64%
    04:00 +9°C° 0 mm 3 m/s 746 mmHg 64%
    05:00 +7°C° 0 mm 4 m/s 746 mmHg 64%
    06:00 +8°C° 0 mm 4 m/s 747 mmHg 59%
    07:00 +10°C° 0 mm 4 m/s 747 mmHg 54%
    08:00 +10°C° 0 mm 4 m/s 747 mmHg 49%
    09:00 +11°C° 0 mm 4 m/s 747 mmHg 45%
    10:00 +12°C° 0 mm 4 m/s 748 mmHg 41%
    11:00 +12°C° 0 mm 4 m/s 748 mmHg 37%
    12:00 +13°C° 0 mm 4 m/s 748 mmHg 36%
    13:00 +13°C° 0 mm 5 m/s 748 mmHg 35%
    14:00 +13°C° 0 mm 5 m/s 748 mmHg 34%
    15:00 +13°C° 0 mm 4 m/s 748 mmHg 35%
    16:00 +13°C° 0 mm 4 m/s 748 mmHg 36%
    17:00 +12°C° 0 mm 4 m/s 748 mmHg 38%
    18:00 +10°C° 0 mm 3 m/s 749 mmHg 44%
    19:00 +9°C° 0 mm 3 m/s 749 mmHg 51%
    20:00 +7°C° 0 mm 2 m/s 749 mmHg 58%
    21:00 +6°C° 0 mm 2 m/s 750 mmHg 59%
    22:00 +4°C° 0 mm 3 m/s 750 mmHg 60%
    23:00 +4°C° 0 mm 3 m/s 750 mmHg 61%

    1 Juin, Vendredi

    Heure Température Précipitation Vent Pression Humidité
    00:00 +3°C° 0 mm 3 m/s 751 mmHg 62%
    01:00 +2°C° 0 mm 3 m/s 751 mmHg 64%
    02:00 +2°C° 0 mm 3 m/s 751 mmHg 66%
    03:00 +2°C° 0 mm 3 m/s 751 mmHg 64%
    04:00 +3°C° 0 mm 3 m/s 752 mmHg 63%
    05:00 +3°C° 0 mm 4 m/s 752 mmHg 61%
    06:00 +4°C° 0 mm 4 m/s 752 mmHg 56%
    07:00 +6°C° 0 mm 4 m/s 752 mmHg 51%
    08:00 +7°C° 0 mm 4 m/s 752 mmHg 46%
    09:00 +7°C° 0 mm 4 m/s 752 mmHg 45%
    10:00 +8°C° 0 mm 4 m/s 752 mmHg 44%
    11:00 +8°C° 0 mm 4 m/s 752 mmHg 43%
    12:00 +10°C° 0 mm 4 m/s 752 mmHg 43%
    13:00 +10°C° 0 mm 4 m/s 752 mmHg 43%
    14:00 +10°C° 0 mm 4 m/s 752 mmHg 43%
    15:00 +10°C° 0 mm 4 m/s 752 mmHg 43%
    16:00 +11°C° 0 mm 4 m/s 752 mmHg 43%
    17:00 +11°C° 0 mm 3 m/s 752 mmHg 43%
    18:00 +9°C° 0 mm 3 m/s 752 mmHg 48%
    19:00 +8°C° 0 mm 2 m/s 752 mmHg 54%
    20:00 +8°C° 0 mm 1 m/s 752 mmHg 60%
    21:00 +7°C° 0 mm 1 m/s 752 mmHg 62%
    22:00 +6°C° 0 mm 1 m/s 752 mmHg 63%
    23:00 +5°C° 0 mm 1 m/s 752 mmHg 64%
    Voir plus